Theta_e
361 359 357 347 323 319 312 318 326 324 324 331 333 330 327 330 325 315 340 342 347 351 354 356 362 359 359 362 364 361 360 362 363 362 363 363 362 362 362 361 361 361 360 362 363 361 362 362 361
357 356 351 338 317 307 309 323 322 326 330 333 332 331 328 326 335 335 336 343 351 353 353 354 362 360 359 362 364 360 360 362 363 362 362 362 361 362 362 361 359 359 359 362 362 361 361 362 362
355 355 336 326 316 308 311 323 324 328 331 330 328 332 331 330 334 335 340 346 349 351 354 354 362 360 360 362 363 360 361 362 363 362 361 361 361 362 362 362 360 360 360 362 362 361 362 360 359
351 346 340 322 313 320 321 324 328 328 329 331 330 325 332 338 335 340 343 346 346 350 354 359 361 360 361 363 362 361 361 361 363 360 361 362 361 362 362 361 362 361 361 361 361 361 360 359 359
341 332 321 317 317 323 326 328 329 325 327 327 328 323 327 337 340 341 344 345 345 350 355 354 363 361 361 363 362 360 361 360 361 361 361 362 361 361 362 361 360 360 361 362 361 360 359 359 359
328 329 312 308 315 325 327 329 329 327 327 327 326 325 328 338 337 341 346 344 348 351 356 354 360 364 364 362 362 362 362 360 361 361 360 362 362 361 361 361 361 361 361 359 360 358 358 357 357
325 319 314 316 315 323 326 331 328 327 326 326 330 322 329 336 341 346 348 348 351 354 355 354 355 359 364 363 363 362 361 360 360 360 361 360 362 361 361 361 361 360 361 360 359 358 358 355 354
330 325 317 317 314 318 329 330 332 329 326 333 332 322 326 335 344 348 348 349 351 354 355 354 354 355 354 355 362 362 361 359 358 360 361 361 360 362 362 361 361 361 359 358 357 357 356 355 354
335 318 314 318 317 319 330 327 332 334 327 330 331 331 335 341 344 344 344 345 346 349 351 351 351 351 353 354 357 362 362 359 360 358 360 359 353 353 357 360 361 361 359 358 357 357 357 356 355
327 318 320 323 324 322 327 329 329 328 326 326 329 335 340 341 340 339 339 340 342 344 349 351 352 351 351 356 353 353 353 352 352 355 353 353 352 354 357 360 362 362 361 358 357 357 357 354 348
325 319 324 324 329 328 327 328 331 326 323 326 326 332 337 338 338 338 340 340 341 343 347 349 350 350 349 349 349 350 352 352 352 352 351 352 354 352 354 351 354 355 359 353 354 352 352 351 349
324 327 324 328 329 328 327 330 327 329 328 331 333 336 336 335 337 338 339 340 338 342 344 346 347 346 345 346 349 350 350 350 350 350 350 348 348 348 348 346 351 353 352 349 349 348 348 349 349
325 325 327 330 328 329 331 327 327 326 331 333 335 335 334 335 337 338 340 335 334 339 341 342 344 342 344 346 349 349 350 351 351 349 351 350 347 346 347 348 350 352 352 350 346 347 345 343 342
329 326 327 326 328 330 327 327 328 327 332 332 333 332 332 334 336 337 337 335 336 339 339 342 343 344 345 347 348 349 350 351 350 350 350 351 348 346 348 347 348 347 346 348 348 348 344 341 344
329 323 324 324 328 327 326 320 322 327 330 329 329 329 331 333 335 334 336 337 336 338 340 342 344 346 345 346 348 346 349 351 349 349 351 350 348 347 349 348 347 346 343 345 346 346 343 342 343
319 319 313 324 326 326 324 312 323 327 326 325 327 328 329 331 333 333 334 335 333 338 339 342 346 346 345 346 347 346 349 349 349 350 349 351 348 348 347 346 345 346 346 345 344 341 338 340 337
310 306 310 317 326 324 322 317 324 326 325 322 324 326 328 329 331 330 330 333 332 333 339 341 344 344 346 347 346 344 347 346 346 346 348 351 350 349 347 347 346 345 343 344 345 341 339 336 333
303 307 309 310 318 323 321 320 322 324 323 322 322 323 325 326 328 330 330 331 334 332 333 341 343 343 344 347 346 343 344 346 346 346 348 351 351 350 348 348 346 345 343 343 344 341 340 340 339
308 307 308 313 322 320 319 318 321 323 322 321 320 321 323 324 328 330 330 331 331 330 331 340 341 342 345 344 343 341 342 344 346 345 350 351 351 351 347 347 347 346 343 342 344 343 341 343 345
305 306 307 314 321 320 319 317 323 324 322 323 321 321 322 323 324 326 327 328 328 330 329 335 341 343 346 345 346 340 342 344 346 345 348 353 349 349 348 347 347 346 342 342 345 343 340 341 342
297 303 296 307 319 320 316 311 316 322 324 325 324 325 325 324 323 324 324 326 327 327 328 333 340 344 346 346 343 343 343 340 339 338 340 348 350 351 350 348 347 345 343 342 344 342 340 337 339
296 300 305 316 309 304 315 300 308 314 317 323 324 324 324 325 326 326 327 327 328 328 329 335 340 344 346 345 344 342 338 338 339 340 340 344 348 348 350 349 349 346 345 344 344 345 342 340 337
299 303 302 311 298 302 310 302 304 310 312 318 322 326 327 327 328 328 328 329 330 331 332 336 342 343 346 344 344 343 339 341 341 340 338 341 340 345 349 351 350 347 345 346 345 344 344 342 338
304 302 299 295 292 289 296 304 299 306 312 316 321 323 324 327 329 330 331 332 331 333 337 339 341 343 345 344 343 342 341 340 339 338 339 337 338 340 348 349 350 348 346 346 345 344 344 344 342
301 294 289 290 289 288 293 298 300 308 314 317 315 317 319 322 329 329 330 331 331 334 337 339 342 341 343 342 341 342 342 342 342 340 339 338 336 338 341 348 349 349 348 348 347 345 343 344 343
298 295 290 287 286 290 294 294 300 308 314 314 318 328 330 324 327 330 330 331 332 335 337 339 340 340 342 342 341 342 343 344 344 342 340 338 336 338 345 349 351 352 349 349 348 346 345 345 345
297 295 297 289 287 292 295 300 307 313 320 326 327 327 328 329 327 328 330 331 333 336 337 340 340 340 342 342 342 342 344 345 343 342 342 339 337 341 345 348 348 351 350 349 348 347 346 346 345
301 300 294 290 287 289 294 296 299 309 317 323 324 325 327 329 328 327 330 332 337 338 341 341 341 340 341 343 343 344 345 346 346 344 341 340 342 343 346 348 349 350 350 349 348 347 347 345 345
299 295 291 290 289 289 290 296 304 308 317 323 323 326 327 329 328 330 334 337 338 337 338 340 340 340 340 342 342 343 346 348 349 347 345 344 344 345 346 344 347 349 349 346 348 347 346 345 344
298 294 292 292 290 287 291 297 308 314 319 324 324 326 327 329 329 331 334 336 337 335 333 338 341 341 342 343 342 342 343 345 346 348 350 349 346 346 347 346 343 346 348 347 346 347 349 345 343
Wind_Speed
11 7 3 1 1 1 3 3 3 8 3 3 4 2 5 6 1 3 6 5 11 11 9 11 14 14 14 15 16 15 15 15 14 14 13 14 13 13 11 10 10 11 13 13 14 13 13 13 13
4 6 1 1 1 0 4 4 7 9 8 7 8 3 5 5 4 8 5 5 13 11 7 10 15 14 14 15 15 15 13 13 13 12 12 13 12 12 10 12 12 14 15 14 14 13 13 12 12
10 5 1 2 3 3 3 3 7 11 12 4 6 5 3 3 8 10 6 11 10 9 7 11 16 15 14 15 15 15 14 12 11 12 11 12 11 13 11 12 12 15 14 13 12 13 12 11 11
3 0 1 3 4 4 5 6 14 15 4 6 9 9 4 3 7 4 10 10 9 8 8 14 17 16 15 14 14 14 13 11 11 11 11 11 10 12 14 11 12 12 13 13 12 12 11 10 10
3 3 2 3 3 0 4 9 13 8 4 6 3 4 4 1 3 14 10 11 11 8 8 12 16 16 15 14 13 12 12 11 10 10 10 10 10 11 11 11 10 10 10 11 12 11 10 9 10
4 2 1 3 4 3 4 10 8 4 7 6 6 6 3 2 13 11 11 11 9 9 8 10 16 15 16 15 13 12 10 9 9 8 9 10 10 10 10 10 10 10 10 9 9 9 8 7 7
5 1 3 5 4 1 5 10 10 7 6 3 11 5 3 8 7 7 7 11 11 10 7 7 9 12 15 14 13 12 10 9 8 8 7 8 9 9 10 9 9 9 9 8 8 7 6 6 6
3 2 4 4 7 3 8 12 9 9 3 11 5 7 8 12 9 8 10 9 10 9 8 6 5 6 5 6 12 10 9 8 7 8 7 7 8 9 10 8 6 8 8 7 6 7 9 6 3
5 4 4 7 10 14 6 8 7 10 13 3 6 5 12 14 12 11 9 8 7 6 5 5 5 5 6 5 6 10 10 9 8 7 7 6 2 4 6 8 9 8 7 6 5 6 7 8 4
3 4 1 5 8 12 7 11 10 6 10 4 8 15 18 15 13 13 11 11 8 9 8 8 7 6 5 5 3 5 4 3 3 3 3 3 3 3 4 6 9 10 9 6 5 5 8 7 2
4 3 5 4 8 12 5 2 3 11 6 7 16 20 19 15 11 12 10 9 9 5 7 8 7 5 5 4 3 2 2 2 2 4 3 2 2 2 2 2 2 2 7 2 3 4 4 4 2
3 6 3 5 5 7 7 3 5 3 2 10 19 24 19 17 14 12 13 9 7 7 10 9 6 5 6 3 3 3 3 3 3 3 4 3 2 2 3 3 3 3 2 4 3 3 4 5 4
4 5 8 8 9 6 9 8 5 6 9 15 17 17 16 14 11 11 15 12 13 10 10 9 7 7 6 5 3 4 4 4 5 4 4 4 3 3 3 3 3 2 2 3 2 3 3 4 4
12 9 11 8 2 5 6 4 4 5 11 16 17 16 13 14 14 13 14 16 15 10 11 10 11 11 8 7 6 5 4 5 4 4 5 6 4 3 4 4 4 3 3 3 3 4 4 3 2
7 7 10 11 2 2 4 7 3 12 11 15 15 13 14 12 10 12 9 10 11 9 13 12 12 10 9 9 7 5 5 4 5 4 6 6 5 6 5 4 3 4 4 4 3 3 3 3 3
3 5 3 3 6 4 6 8 9 14 15 12 14 14 14 15 14 8 9 9 6 8 11 12 11 8 9 8 6 4 5 5 6 4 4 6 7 6 4 3 3 4 3 3 3 4 3 3 3
2 5 5 3 7 7 5 5 14 16 16 16 15 14 15 14 14 12 11 10 9 8 10 11 12 11 10 7 5 5 6 4 4 3 4 6 7 6 5 5 4 5 4 4 3 2 3 4 3
7 5 4 3 7 2 3 7 14 16 15 16 17 17 15 16 22 17 16 13 11 8 9 11 11 10 10 5 4 2 2 4 4 4 4 6 5 6 5 4 4 5 4 4 3 4 3 3 4
9 2 5 3 7 5 6 6 13 16 12 14 15 16 19 20 18 16 17 16 14 9 8 11 11 10 8 4 5 3 4 3 3 3 5 6 5 6 5 4 4 5 5 5 4 3 5 3 2
5 6 4 5 10 2 6 12 3 13 16 16 17 17 19 16 15 16 17 17 16 16 12 12 13 11 11 8 6 3 4 3 2 2 3 6 6 5 5 5 5 5 4 5 5 4 3 2 3
3 6 4 6 6 6 7 8 10 4 8 15 16 15 16 18 18 17 17 18 17 17 15 16 17 15 13 10 5 3 3 2 1 2 3 4 8 7 7 7 5 5 4 5 5 5 6 4 2
2 9 8 14 6 5 8 6 7 7 11 8 13 20 19 20 17 17 18 18 19 18 14 14 16 15 14 12 10 8 9 5 5 4 3 5 6 6 7 7 6 6 4 5 5 4 3 3 3
8 5 8 9 6 6 3 3 9 3 6 13 14 17 16 21 21 21 21 18 18 15 16 15 16 15 15 14 14 10 5 4 2 3 6 6 5 6 6 6 7 6 6 6 6 5 5 3 3
4 2 6 5 4 2 7 9 8 5 10 5 5 10 13 17 24 24 22 18 15 12 13 14 16 15 15 14 14 13 12 7 5 4 4 4 4 4 6 6 5 6 6 7 6 6 6 5 4
7 8 5 7 7 5 3 4 9 6 5 7 4 8 11 17 20 21 22 19 14 11 15 14 16 17 15 15 14 14 12 10 12 9 7 6 4 4 7 7 6 5 6 6 6 6 6 6 5
3 7 7 2 1 5 2 3 6 2 4 2 7 5 3 4 11 18 20 16 17 16 16 17 17 16 16 16 16 14 13 9 9 8 7 5 6 6 6 7 7 7 7 7 6 4 4 6 6
3 2 4 8 3 3 4 5 4 6 7 5 4 3 7 6 4 10 14 15 16 16 19 19 18 17 16 18 14 14 12 12 10 10 7 6 6 6 7 8 9 9 8 7 7 5 6 5 6
3 5 3 5 2 2 5 3 4 1 3 2 6 5 0 5 6 7 8 11 8 7 4 5 12 18 17 16 14 13 14 14 11 8 9 9 8 7 7 8 9 7 8 8 7 5 5 6 4
7 6 7 6 4 6 1 7 6 4 4 6 2 4 3 5 6 8 10 12 11 9 4 8 9 12 12 13 13 12 11 12 10 10 9 10 7 8 8 8 9 10 10 8 8 7 6 8 6
2 3 5 7 2 3 4 7 2 3 3 1 6 5 2 3 4 6 11 15 15 15 21 19 14 12 13 12 12 14 13 12 11 12 12 8 10 9 10 8 9 8 9 8 10 11 9 9 7
Wind_Direction
178 165 143 217 313 147 251 215 102 154 170 217 141 132 141 41 52 200 139 145 134 144 152 143 141 134 131 122 113 109 102 102 101 102 97 96 97 102 107 102 110 124 127 118 116 111 112 112 117
157 146 80 288 219 276 267 133 163 167 140 125 89 79 59 86 78 110 106 161 141 143 139 145 143 140 137 128 119 111 104 102 100 100 97 95 97 100 113 105 105 117 122 115 113 114 113 119 121
169 235 102 204 211 229 184 125 138 136 162 140 115 58 52 64 102 139 142 144 140 134 131 152 147 146 144 138 126 122 116 112 110 99 98 96 99 110 107 105 104 112 117 112 111 113 114 115 117
131 338 254 279 262 255 153 161 137 147 88 67 105 76 89 37 128 146 133 139 141 139 141 156 153 149 150 141 134 130 125 119 109 104 100 98 102 109 115 113 114 112 114 116 115 116 114 115 124
42 55 306 297 275 298 108 152 154 150 96 122 126 117 75 79 262 139 133 151 154 144 153 152 156 152 154 146 141 137 132 126 117 116 106 101 108 114 115 117 118 119 115 113 118 117 118 117 112
52 47 342 281 304 101 116 149 158 124 121 137 86 108 91 54 132 146 150 156 149 150 152 160 159 161 157 155 150 145 139 137 128 122 115 111 119 121 124 126 131 136 133 126 120 119 115 115 108
113 54 301 318 284 359 159 163 170 132 133 138 132 80 104 141 132 132 138 144 147 148 150 159 162 164 162 163 156 154 155 148 145 134 126 121 118 130 133 145 145 148 136 138 128 120 111 102 89
108 113 349 23 324 267 175 162 158 131 142 115 138 155 165 162 134 104 129 133 143 150 159 161 166 158 154 169 167 167 166 162 166 149 141 145 136 139 138 140 164 151 149 147 135 126 105 78 44
146 65 1 16 336 305 163 152 123 89 137 180 160 137 145 133 125 111 128 123 127 143 157 156 158 157 156 166 180 178 176 180 189 173 163 155 147 121 136 149 163 166 156 150 138 105 109 89 22
99 100 265 307 287 336 315 140 132 125 154 87 88 112 123 138 143 139 148 144 152 162 173 176 173 171 164 174 174 154 194 189 205 199 208 139 162 155 163 168 173 178 167 164 164 129 86 85 73
17 147 197 270 315 338 345 335 107 129 201 179 157 146 146 148 154 155 141 165 172 156 179 190 178 173 179 179 159 170 195 187 214 219 195 149 171 201 172 150 222 172 179 144 160 83 99 109 96
344 272 259 287 320 328 340 161 102 75 303 151 160 154 151 158 162 156 153 179 164 191 194 188 175 171 199 173 165 178 196 192 227 219 196 169 183 211 179 191 195 167 139 162 132 120 137 144 121
286 240 301 251 280 351 12 75 66 59 82 110 138 146 151 159 154 169 157 175 200 211 187 186 159 186 200 181 171 181 206 202 215 198 206 174 194 196 165 196 187 173 147 149 144 137 146 157 181
186 188 258 314 352 22 85 44 93 96 123 128 147 150 163 171 175 179 184 189 197 200 192 182 186 194 190 182 181 198 194 211 220 198 206 192 181 181 200 168 177 165 175 157 168 177 156 213 175
151 190 243 278 293 49 122 4 12 137 149 149 159 160 168 185 197 204 181 186 204 199 190 188 190 190 186 195 192 187 199 204 227 201 207 179 180 181 199 182 184 171 191 171 173 134 140 199 234
154 155 200 250 146 220 109 248 185 159 156 176 173 176 180 193 200 210 201 202 204 191 184 183 189 180 190 194 189 188 209 202 220 189 179 174 183 184 185 196 199 165 169 164 158 154 173 187 201
299 256 187 150 209 177 229 230 187 176 170 174 187 197 189 195 202 209 218 212 193 193 180 187 189 179 186 187 183 191 211 215 216 183 179 184 180 186 191 189 181 165 181 189 165 170 171 178 202
240 227 220 153 201 152 220 266 168 186 183 185 190 190 203 205 208 201 211 217 215 192 181 186 193 190 187 166 150 168 227 249 228 197 188 175 182 195 180 187 171 169 174 188 177 180 182 193 191
224 272 243 203 171 128 220 256 177 189 197 194 192 205 199 210 213 210 214 217 212 198 183 186 186 192 176 167 174 174 203 225 242 216 180 178 181 188 178 194 182 178 179 189 183 160 175 220 162
125 206 255 11 160 56 180 248 184 184 202 207 197 202 214 209 212 217 219 215 217 208 193 185 197 185 190 190 187 176 170 200 189 188 199 187 173 179 181 198 196 184 170 171 193 159 148 182 176
220 182 218 145 113 25 107 310 267 202 190 205 212 206 216 217 207 210 217 222 217 213 203 197 193 187 194 185 135 83 103 77 126 197 200 193 185 186 196 198 193 187 177 180 184 165 169 164 180
16 199 143 138 130 189 206 253 274 208 233 209 203 208 209 210 211 215 209 220 219 215 208 206 196 189 189 172 175 183 199 175 195 185 189 186 188 180 192 183 201 193 182 185 186 175 168 127 181
234 189 172 171 144 105 228 10 266 96 248 231 208 214 215 211 212 211 213 214 222 213 210 202 194 190 187 186 188 189 203 207 133 167 187 202 186 193 191 195 189 189 189 193 182 164 170 170 164
291 51 53 75 117 67 210 167 283 191 210 269 198 219 222 220 212 210 211 205 208 201 194 187 191 193 189 188 189 192 200 184 175 189 204 209 193 199 198 200 196 189 195 191 187 181 174 180 193
59 46 0 1 15 226 339 109 255 275 222 230 280 257 258 222 211 210 206 199 200 183 188 187 189 193 191 189 190 197 199 187 199 197 199 191 195 210 210 189 207 202 196 192 179 178 183 185 188
357 131 145 202 231 267 317 281 292 323 69 175 150 246 315 290 213 202 203 193 188 176 181 188 192 197 190 187 197 200 199 203 204 200 198 196 200 206 180 191 196 203 196 192 177 180 187 187 197
186 25 179 104 12 52 296 307 336 53 59 58 112 45 5 333 227 172 183 180 180 177 182 189 189 197 195 196 193 199 200 207 208 203 203 194 202 210 197 190 204 199 194 195 180 185 193 188 188
86 157 31 6 84 350 326 319 242 55 170 209 62 71 42 49 57 121 139 148 139 131 86 234 209 195 192 196 195 200 202 211 213 204 199 200 208 212 199 187 194 197 204 191 178 180 183 190 197
7 14 53 110 104 146 119 273 220 225 248 131 124 85 115 124 137 125 118 125 122 104 127 226 220 215 207 195 199 200 210 215 210 216 215 200 200 208 219 205 186 195 201 191 190 187 185 195 196
26 108 115 111 257 48 143 274 253 246 229 263 156 127 134 105 118 123 135 143 153 178 182 211 208 210 199 209 203 204 203 212 223 221 221 193 200 208 217 220 213 192 204 195 199 196 197 198 198